GFSSGP_500_rhum_000.txt.gz
RH
63 40 40 53 46 38 41 98 99 76 90 32 9 6 10 7 24 53 77 68 84 41 33 28 15 7 6 7 9 14 12 8 12 13 15 15 16 12 10 10 11 18 21 21 18 8 2 8 10
62 28 80 38 28 26 96 99 78 47 24 16 6 6 4 8 14 20 22 23 20 28 15 6 7 7 6 15 15 14 13 12 14 10 4 3 4 6 7 9 10 8 6 8 10 11 10 7 7
95 30 43 25 24 66 90 96 66 54 12 8 7 5 7 8 7 14 17 22 22 9 8 9 12 12 10 10 13 16 10 6 5 4 5 5 5 5 5 5 5 5 6 4 4 4 7 14 15
7 36 19 9 62 84 98 88 55 30 10 11 14 13 11 6 8 12 11 8 7 11 8 11 11 4 4 4 6 6 6 5 5 5 5 5 6 7 8 8 7 7 7 7 7 7 5 6 7
70 42 14 54 98 87 82 64 70 11 76 36 25 21 5 4 5 6 7 9 6 7 8 5 3 2 3 4 4 4 4 5 5 5 6 6 7 8 10 12 12 11 9 8 7 8 10 9 6
18 35 80 93 96 79 71 58 59 96 96 16 8 4 4 6 5 6 6 6 6 4 2 2 3 3 4 4 4 5 6 6 7 7 8 9 10 12 17 24 27 30 29 29 26 21 15 11 10
52 46 88 95 98 89 39 15 21 25 9 7 6 4 8 2 2 4 5 3 3 4 4 4 4 4 5 5 5 6 7 7 8 9 10 11 12 15 20 26 33 36 36 35 33 32 32 33 32
61 76 89 96 98 93 30 18 12 18 8 6 11 4 2 2 3 3 2 2 5 5 5 4 5 6 6 6 7 8 9 10 10 11 11 12 16 20 29 34 35 38 40 39 40 42 41 42 39
54 94 96 97 93 58 19 16 10 7 5 11 10 4 2 2 3 3 4 4 4 5 6 6 6 5 6 6 8 11 12 13 15 19 22 28 30 36 44 47 45 46 47 47 48 45 46 48 51
73 70 72 77 61 63 19 13 7 5 3 4 5 4 3 3 3 3 3 3 4 5 6 6 8 8 9 9 10 12 13 18 24 30 34 36 36 34 30 33 35 38 37 37 38 46 47 45 40
68 75 61 45 37 28 15 10 4 5 6 6 6 6 6 5 5 6 8 9 8 7 8 10 12 13 15 15 17 22 25 26 30 37 38 36 35 36 36 36 39 43 49 49 49 45 46 48 44
78 72 68 42 12 7 6 4 3 7 6 9 8 8 8 8 9 9 10 9 9 13 16 20 18 20 24 26 26 29 32 34 34 36 36 38 39 39 42 44 46 48 43 42 45 44 41 42 40
70 45 21 3 1 3 3 5 6 8 8 8 9 11 11 11 10 11 11 11 12 14 10 14 19 20 21 18 26 35 37 35 39 39 40 45 45 42 43 48 51 51 47 43 40 37 35 33 32
3 2 0 2 4 5 6 7 8 8 9 11 13 12 13 15 14 15 15 16 14 13 11 12 27 36 39 25 31 42 42 42 43 43 50 52 50 49 50 49 45 43 42 38 30 26 27 27 24
2 4 6 7 8 8 8 8 11 10 13 12 13 14 17 14 12 12 18 21 20 16 16 30 84 43 46 35 44 43 47 49 46 44 45 42 41 43 47 47 46 38 32 26 20 18 16 15 15
3 6 37 14 12 11 10 43 34 28 12 13 15 16 18 20 17 17 23 26 22 19 21 83 95 59 39 46 41 43 41 46 44 43 39 41 47 44 49 42 38 31 25 26 25 24 22 21 19
16 68 82 44 23 12 16 73 85 22 15 19 23 22 20 28 20 26 25 32 30 27 14 26 21 36 45 84 63 54 56 58 58 63 57 56 64 47 40 32 27 29 27 27 27 26 26 24 23
84 72 78 50 13 14 20 40 49 14 21 22 24 24 34 28 35 35 22 33 43 29 25 26 8 40 63 75 88 72 68 63 75 91 66 67 64 48 41 36 33 27 28 31 33 31 29 27 25
68 60 51 83 19 20 20 26 18 23 20 20 23 24 30 33 31 29 34 51 46 46 60 29 41 86 100 69 68 84 79 94 96 83 62 56 40 53 41 36 34 37 39 40 38 35 33 29 28
54 40 49 26 21 23 30 55 16 20 24 21 21 25 28 29 30 28 30 39 50 66 54 72 59 62 72 85 77 90 100 90 76 65 51 46 56 83 98 95 65 55 81 89 75 69 46 37 37
23 21 18 21 14 14 18 85 33 29 28 25 19 19 21 27 29 28 31 46 61 67 79 84 88 98 99 89 86 86 76 72 56 53 84 55 61 79 94 94 91 76 64 77 54 51 46 38 37
16 18 17 19 20 54 43 78 95 76 46 31 27 29 30 26 23 22 27 45 50 73 88 94 77 87 100 94 80 73 60 57 58 61 58 54 57 59 62 61 54 56 46 47 46 44 43 39 35
18 21 22 23 22 26 47 48 98 93 78 48 39 33 28 27 26 30 34 40 55 60 60 62 73 83 76 71 64 62 62 55 53 49 47 43 45 44 45 46 42 44 47 48 48 42 43 46 44
20 21 20 19 19 20 47 82 92 96 81 82 33 29 30 32 35 41 45 48 58 62 64 74 80 56 60 65 63 61 56 51 46 44 45 48 49 52 54 54 55 52 53 54 48 51 57 48 38
21 17 18 49 88 55 68 78 84 54 67 58 50 37 36 49 52 50 53 55 56 57 60 63 69 73 64 52 53 54 47 49 51 46 46 47 44 46 47 47 48 56 58 67 66 73 79 71 24
30 33 35 40 46 57 72 56 88 71 79 70 53 62 53 44 52 59 61 60 60 68 69 64 66 63 60 62 52 47 46 47 46 49 50 49 49 56 55 51 49 51 81 93 95 73 57 24 20
30 33 32 30 32 32 43 98 100 83 88 66 62 59 59 62 64 67 68 62 69 67 62 56 52 55 59 53 49 48 47 47 46 42 42 48 52 74 95 98 100 98 34 23 18 16 15 13 13
36 36 37 38 41 47 89 100 95 87 100 90 69 64 62 64 65 65 66 68 58 51 46 42 38 38 35 35 40 37 35 35 45 54 53 55 59 88 88 73 43 17 14 15 14 12 13 16 26
28 26 30 37 41 45 46 66 71 78 77 70 82 76 77 81 81 79 67 57 52 42 38 32 33 33 40 37 33 42 50 55 56 55 55 48 38 29 20 16 16 19 16 13 14 18 31 43 70
24 25 25 30 36 36 40 50 54 57 68 100 81 77 74 80 66 57 55 51 39 39 39 36 37 31 32 39 45 57 57 55 57 50 37 26 20 18 20 21 18 15 15 21 36 75 86 86 82

GFSSGP_500_rhum_003.txt.gz
RH
88 55 16 16 35 48 100 92 97 98 88 81 75 64 34 24 23 27 62 64 78 37 37 38 19 7 5 7 12 9 8 8 10 4 3 4 4 5 5 5 5 5 5 6 7 6 8 7 5
64 88 40 52 28 76 91 64 88 97 97 93 77 59 10 8 13 10 15 79 40 23 31 17 8 6 8 10 11 10 11 7 5 5 6 7 7 7 7 8 8 8 9 7 6 5 4 8 11
94 86 36 82 72 97 84 94 100 92 94 78 53 15 7 9 23 18 14 78 48 33 12 8 7 8 6 5 6 9 6 4 5 6 6 6 7 8 8 8 8 8 9 9 9 9 9 6 8
77 81 41 72 92 82 80 80 96 96 95 80 17 10 7 16 11 11 16 40 42 12 9 8 7 3 2 1 2 3 4 4 5 5 5 6 7 8 11 12 13 15 14 10 9 8 9 10 9
76 28 65 87 78 96 96 91 84 90 96 60 22 21 16 22 10 11 10 11 10 8 7 5 3 2 3 4 4 4 5 5 6 6 7 8 8 11 14 20 24 26 26 27 26 23 23 22 16
78 82 93 84 96 98 94 75 89 70 69 84 46 3 29 6 7 7 7 9 6 4 2 2 2 3 4 4 5 6 6 7 8 9 9 10 11 13 15 18 22 24 26 26 25 26 27 28 29
58 79 85 90 94 98 87 87 81 71 71 55 3 2 6 3 3 4 5 5 2 1 2 3 4 4 5 6 6 7 8 10 11 11 12 13 14 18 21 27 33 37 37 38 37 35 35 35 34
90 64 95 89 89 96 99 78 55 12 14 5 4 6 2 2 3 5 3 2 2 4 4 4 4 4 5 6 6 8 10 12 13 18 22 23 28 30 30 31 33 34 36 36 35 32 31 31 33
93 94 96 96 97 94 88 54 14 6 8 10 6 13 4 2 2 2 3 4 4 4 4 4 5 5 6 8 10 10 11 14 18 22 26 29 33 32 34 37 34 32 32 38 40 43 42 38 36
95 79 92 93 85 97 78 31 13 9 8 4 7 10 4 3 2 3 3 2 2 4 6 8 9 11 12 14 16 18 20 24 25 27 25 26 28 29 28 28 33 38 41 44 44 42 41 44 44
74 73 100 99 84 64 46 23 11 6 4 6 6 6 3 4 2 3 5 6 8 8 13 13 14 16 20 21 18 20 27 27 28 29 27 26 29 31 32 36 36 37 41 45 46 46 43 41 41
73 73 71 69 65 41 15 11 5 5 9 9 8 7 8 6 6 7 7 10 11 14 15 13 16 17 13 12 13 17 14 14 28 37 31 31 32 36 39 37 36 36 37 36 37 36 35 32 29
68 37 41 63 38 5 5 4 5 8 8 7 7 9 10 10 10 12 13 14 12 11 11 16 17 22 32 68 38 22 20 17 25 30 36 39 42 40 38 35 36 36 36 36 35 31 29 21 13
29 8 2 0 0 4 6 8 10 10 12 12 10 10 12 15 15 16 13 12 10 12 18 19 32 42 77 91 65 50 37 36 34 41 42 40 38 34 37 38 41 40 36 32 30 24 21 20 18
0 1 5 7 9 12 12 15 9 12 12 14 17 14 13 13 11 10 13 15 17 18 19 23 84 72 100 95 65 79 80 63 47 38 44 47 42 54 54 46 43 36 31 27 22 20 20 20 20
0 3 6 22 22 17 13 9 21 40 12 12 14 16 16 12 8 8 18 24 26 15 20 24 16 47 95 86 78 69 93 85 57 50 52 46 37 49 53 44 39 33 28 25 23 23 23 23 24
67 65 69 72 31 15 21 11 29 24 11 15 18 18 17 14 10 10 14 20 34 24 33 12 26 31 61 57 81 96 87 70 73 74 68 68 67 60 48 37 40 36 32 34 33 31 31 31 31
76 98 95 69 41 27 28 64 52 8 13 17 21 20 19 16 15 18 20 24 25 33 74 20 22 55 57 71 70 82 95 91 84 83 85 73 63 49 46 44 43 41 42 42 39 34 35 31 29
90 79 82 77 36 26 26 33 30 18 18 22 24 24 23 23 21 23 30 26 42 61 52 30 34 33 38 63 98 84 89 89 86 70 68 55 53 54 48 44 44 42 42 47 47 43 39 42 44
88 63 52 18 18 21 22 27 27 24 30 21 20 21 21 24 29 36 37 48 62 70 63 39 45 77 63 74 80 81 96 87 73 68 58 58 48 42 44 42 41 41 40 39 38 37 35 35 37
32 50 46 24 16 21 19 28 29 30 36 62 58 47 37 44 39 41 43 49 41 41 54 81 83 64 56 73 78 93 90 66 60 56 47 47 51 50 48 47 46 40 33 31 33 34 36 34 42
18 23 20 21 21 26 28 83 64 32 21 10 36 26 45 40 36 43 43 40 38 42 46 51 58 65 72 70 82 77 65 61 54 54 55 56 53 52 50 48 44 42 38 34 31 36 39 41 40
18 19 20 22 24 27 29 58 100 91 85 66 79 66 73 68 35 33 37 44 51 58 60 65 68 64 64 64 66 64 60 59 59 59 57 54 48 40 40 38 34 36 39 44 45 44 48 52 49
21 21 23 22 21 20 38 71 97 88 98 44 66 66 94 70 43 40 46 48 49 52 61 61 63 68 66 62 60 63 60 53 46 52 54 44 36 33 39 40 44 48 50 49 49 49 59 78 80
15 17 16 14 48 33 40 73 98 86 72 55 49 60 54 57 57 54 49 46 56 63 64 69 72 67 59 43 38 35 36 36 32 30 30 30 33 40 46 48 50 52 52 49 47 44 42 38 36
20 23 24 29 44 47 68 57 69 65 76 87 88 77 92 92 85 71 69 69 63 64 82 74 73 70 59 48 40 34 26 25 29 29 35 38 45 52 57 58 56 50 40 29 21 14 10 8 8
29 31 33 35 35 38 48 51 88 99 98 100 99 94 96 90 62 74 68 62 60 50 41 33 26 21 19 19 23 28 28 26 32 40 47 54 56 56 48 34 20 12 11 11 10 11 12 13 13
30 29 28 25 28 34 64 77 73 71 73 71 78 92 67 59 77 86 68 58 49 38 34 33 28 24 24 27 28 30 35 38 41 48 55 50 42 24 9 7 9 12 15 21 22 18 17 18 23
18 16 19 21 22 30 37 54 67 65 67 66 63 92 88 74 66 54 35 30 35 37 35 24 25 26 29 30 34 42 50 42 41 48 42 22 9 9 14 23 22 18 19 17 18 22 28 41 74
18 19 21 24 24 25 33 54 58 57 58 76 99 75 65 68 48 34 39 42 40 35 28 29 31 34 39 40 44 46 43 41 39 24 8 8 13 23 38 24 19 21 24 24 26 31 68 78 61

GFSSGP_500_rhum_006.txt.gz
RH
95 96 50 44 90 77 85 84 96 62 53 82 84 89 84 94 38 67 75 69 87 91 66 35 29 13 7 5 8 8 7 5 5 4 6 8 8 8 9 9 9 9 8 8 8 8 6 4 5
96 95 66 20 48 73 87 96 85 86 90 79 85 93 98 90 53 16 28 21 36 52 60 32 12 7 6 7 8 8 9 5 5 6 8 7 8 8 10 10 9 9 9 9 9 9 10 10 10
95 95 60 45 27 65 93 100 91 89 96 96 95 98 99 91 48 15 22 30 40 97 47 12 7 7 5 4 4 6 4 4 6 6 6 6 7 10 13 13 14 15 15 12 10 8 8 9 10
76 95 95 89 60 73 88 86 88 88 90 95 82 74 71 27 10 13 21 44 48 51 24 7 6 5 2 1 2 3 4 5 5 5 5 6 10 12 14 17 20 21 23 24 24 23 19 18 17
88 93 91 96 84 86 96 95 89 82 95 91 69 77 76 23 20 24 14 20 19 12 8 7 4 2 3 4 4 4 5 5 6 7 8 9 11 11 12 14 16 19 22 26 26 30 31 31 30
92 87 93 93 61 93 98 94 89 82 72 57 72 70 26 11 14 8 8 10 11 10 6 3 2 3 4 4 5 6 6 7 8 9 10 10 11 13 17 21 24 29 32 34 34 33 34 34 34
80 54 92 83 91 98 88 98 87 51 50 48 68 62 10 8 5 5 9 10 10 5 2 2 3 4 5 5 6 8 8 9 11 12 14 18 21 24 25 28 26 28 29 27 30 30 30 30 31
92 83 85 93 96 97 96 97 97 73 59 15 44 7 4 2 3 4 6 6 2 1 2 4 4 5 5 6 7 8 10 12 14 18 23 26 26 23 22 19 18 24 28 29 31 37 38 40 40
99 99 94 93 94 94 97 94 87 68 29 11 6 16 3 2 3 3 2 2 3 4 4 5 6 6 8 10 10 14 15 18 23 29 31 25 25 23 22 25 26 25 29 32 34 36 37 39 41
85 80 88 95 95 96 98 91 73 30 12 7 5 8 3 3 3 3 3 4 4 4 3 5 8 10 12 15 18 22 25 29 29 26 24 28 29 29 30 32 32 35 36 37 39 40 39 38 39
95 92 95 96 90 91 91 41 50 20 6 4 5 4 3 3 2 2 3 3 4 7 11 12 15 18 20 20 21 24 20 13 16 19 20 25 26 31 32 34 34 32 32 30 31 33 37 38 39
76 76 79 94 97 89 72 18 13 5 10 8 9 7 5 6 3 5 7 9 10 12 14 15 16 13 14 14 20 52 52 40 41 38 33 22 23 26 32 31 29 32 36 35 36 35 37 38 34
80 79 82 77 70 62 16 8 5 8 8 8 11 11 12 10 9 9 12 15 13 12 11 13 21 22 35 38 79 89 63 51 65 62 52 32 27 35 41 37 30 32 36 30 28 26 24 24 24
78 34 40 63 62 6 4 6 10 11 9 9 10 11 13 15 17 15 12 12 11 16 20 30 28 51 73 43 85 94 73 75 57 71 66 44 42 47 42 42 38 40 39 32 30 28 24 22 20
37 27 2 10 8 5 8 11 16 13 9 9 8 10 13 14 15 16 15 12 12 17 14 14 22 40 36 45 66 61 59 71 66 73 74 70 64 58 55 59 52 46 40 38 36 31 28 26 25
8 4 9 11 12 13 14 17 44 32 9 10 11 14 14 12 10 13 17 21 25 16 17 15 31 77 71 45 49 44 52 60 66 76 78 68 65 58 54 48 46 44 41 37 34 35 33 32 30
42 16 35 19 40 21 22 20 41 16 9 12 16 14 15 16 14 20 22 17 20 18 17 22 98 80 62 65 60 55 88 98 98 92 81 77 70 58 51 48 43 39 39 43 39 34 31 29 28
61 49 32 86 64 58 59 21 16 12 17 16 19 20 22 23 19 26 44 35 32 26 58 84 62 53 84 69 57 63 89 84 85 88 83 87 68 58 55 50 46 48 48 46 41 36 31 26 24
99 86 50 82 81 81 87 34 22 20 18 21 28 26 25 30 31 34 40 32 46 70 70 40 71 94 39 36 64 77 79 79 79 75 81 70 64 58 56 57 57 50 39 32 21 17 16 17 16
100 82 70 58 46 63 52 28 25 28 21 24 46 35 80 86 76 72 71 87 100 62 38 54 51 33 36 70 67 72 68 70 78 89 79 74 63 59 56 44 42 36 31 27 23 20 21 23 24
92 82 73 56 39 26 26 23 23 26 18 21 36 52 89 99 92 96 92 85 58 47 49 43 42 48 56 68 74 71 67 70 72 75 73 60 57 49 44 38 31 26 24 24 25 25 26 28 31
30 65 67 46 26 36 35 41 27 20 26 27 70 92 100 100 99 100 99 78 50 45 47 47 51 62 72 72 69 71 72 74 72 69 58 48 38 33 32 34 33 28 26 25 26 29 30 30 33
17 21 26 23 25 32 38 68 53 42 27 40 81 93 99 99 85 100 97 78 64 62 59 62 73 72 70 71 76 73 70 67 54 40 29 32 35 32 25 25 24 25 24 26 30 36 40 45 48
23 25 25 24 24 23 27 36 53 48 68 73 100 98 95 66 60 59 75 75 71 69 66 77 75 72 76 74 60 44 30 26 24 25 28 31 28 29 29 27 26 26 27 32 34 33 29 27 24
14 14 15 16 16 22 38 70 67 70 77 88 92 60 42 58 79 92 75 87 72 70 73 78 78 78 65 41 27 22 22 24 27 26 26 27 27 28 29 31 32 34 31 22 15 11 10 9 9
20 22 23 27 31 74 57 48 67 70 72 72 33 70 79 99 91 65 75 65 63 65 58 37 30 24 16 17 20 23 22 21 21 26 31 34 36 36 34 31 23 14 10 9 10 10 12 17 16
27 30 30 30 33 34 34 34 33 32 35 40 93 99 91 78 57 69 72 64 61 32 29 33 19 19 22 24 27 30 30 31 36 39 39 40 39 37 29 17 13 12 11 10 12 30 47 16 20
22 17 17 19 19 23 24 24 24 30 36 46 48 51 50 52 73 77 58 40 29 33 34 25 24 28 28 32 39 40 39 39 42 44 43 41 36 22 13 12 11 16 26 52 68 100 24 22 26
17 18 19 19 18 19 22 20 25 27 26 32 37 48 68 87 76 51 30 32 38 43 41 42 42 40 45 50 44 39 46 53 50 47 45 32 18 12 12 10 37 58 97 98 100 79 26 32 43
17 17 18 19 19 21 21 21 19 20 23 28 37 41 50 100 90 45 38 48 56 52 50 49 47 48 46 40 44 49 52 53 52 48 33 19 13 9 15 80 85 100 100 85 68 54 92 96 76

GFSSGP_500_rhum_009.txt.gz
RH
74 54 65 94 91 73 92 56 62 63 62 78 98 88 94 97 94 97 70 42 82 80 95 88 70 28 12 7 5 7 7 6 5 6 8 8 8 8 9 10 10 11 11 11 10 10 11 12 12
98 85 89 84 82 84 95 91 84 88 58 76 97 95 93 98 96 96 97 84 27 65 59 84 76 20 7 6 7 8 8 5 5 7 7 7 7 8 11 12 12 14 15 15 14 13 11 11 12
88 97 77 90 74 91 92 90 96 100 94 92 95 95 96 90 96 88 72 30 25 46 55 78 34 8 7 6 4 5 5 4 6 7 6 6 6 8 11 14 16 17 18 20 20 20 21 20 20
83 91 88 80 67 53 76 95 86 93 97 96 96 93 93 89 65 63 36 18 23 51 32 36 13 6 4 1 2 3 4 4 5 6 5 5 7 9 10 12 13 15 18 20 23 24 25 27 27
72 81 98 79 76 57 52 72 96 95 93 94 96 95 94 93 91 73 40 24 27 35 14 8 6 3 2 3 3 4 4 4 5 6 7 8 9 10 11 12 14 18 22 26 28 29 29 30 29
68 79 100 97 85 71 76 79 80 89 96 96 92 84 86 69 70 51 30 26 19 11 8 6 4 3 4 4 4 5 6 6 7 8 10 11 12 16 20 25 29 28 29 26 24 25 24 26 27
72 93 85 96 92 96 92 92 94 96 95 95 72 99 79 81 66 36 8 7 8 8 6 4 2 3 4 5 6 7 7 8 9 11 13 16 21 27 28 27 25 24 23 23 25 26 26 28 34
75 85 88 92 97 88 98 96 98 96 97 97 29 45 26 28 15 4 3 7 8 7 2 2 2 4 5 6 6 6 7 9 13 14 17 22 28 28 23 24 25 27 28 31 34 33 33 34 35
88 66 66 83 98 98 96 96 93 95 85 35 11 26 9 2 3 6 6 8 6 2 3 4 4 6 6 7 7 9 12 15 17 19 24 29 24 20 25 26 27 30 30 31 28 26 25 25 27
84 85 97 92 84 92 92 95 81 60 53 15 7 11 6 2 3 2 2 2 3 4 4 4 4 5 8 10 12 16 19 22 20 23 22 20 20 21 20 22 30 34 35 36 31 32 34 35 34
84 98 96 95 94 89 97 80 42 22 9 4 4 6 4 3 4 4 4 4 3 3 4 6 8 13 18 20 21 22 27 43 60 57 46 41 41 27 21 25 28 36 37 35 33 36 38 38 35
98 97 95 96 95 80 81 69 54 10 8 9 10 9 6 5 5 4 4 7 8 8 11 13 17 20 14 15 16 19 45 94 80 76 68 65 57 46 31 28 33 37 36 38 41 38 35 30 28
84 84 88 80 78 80 71 36 11 8 10 11 12 12 8 10 10 10 9 10 12 13 14 14 19 22 26 41 56 51 69 100 90 75 84 67 61 45 32 35 40 46 44 40 37 34 31 29 31
78 72 61 58 63 66 30 5 6 9 11 13 14 14 10 11 13 12 12 14 20 22 25 27 33 27 26 51 42 52 60 54 46 53 55 46 38 33 44 45 46 42 41 38 38 35 35 34 32
67 59 32 50 57 41 3 7 11 13 11 13 12 13 13 13 15 13 13 19 26 24 20 18 21 17 36 60 81 72 58 62 45 48 62 39 43 52 58 52 53 50 48 44 43 44 45 45 43
60 29 18 20 14 8 11 14 22 33 12 9 9 11 13 14 17 19 22 23 23 20 16 27 39 84 97 92 74 86 53 47 43 56 83 85 84 64 62 51 53 51 52 48 45 41 33 26 21
43 30 38 32 24 18 20 28 44 39 10 11 13 14 17 20 20 14 42 59 61 36 20 60 94 98 97 98 93 97 53 47 87 92 91 82 68 69 58 56 54 50 33 20 17 15 13 13 12
26 69 34 36 36 28 17 20 29 19 15 16 18 20 21 22 24 20 46 42 44 37 51 94 100 94 90 97 58 39 61 94 98 85 70 70 66 67 57 48 26 19 15 14 14 14 14 15 14
30 43 52 76 78 58 21 17 20 20 19 23 24 26 25 49 71 62 55 58 56 60 66 65 69 68 67 41 51 72 94 83 82 78 82 75 68 41 28 25 26 22 20 19 18 18 18 18 16
71 38 39 35 48 40 20 20 18 15 14 14 24 62 58 67 77 98 97 100 95 63 61 87 52 42 48 52 54 69 82 65 66 73 76 63 44 32 29 24 22 22 24 24 23 24 23 22 20
89 78 77 72 46 28 21 18 16 18 23 21 26 73 84 88 87 100 98 93 86 92 83 72 62 59 57 55 57 58 70 75 79 70 51 35 25 23 27 29 31 31 30 29 28 28 26 26 25
79 83 77 72 63 56 28 23 23 24 27 37 48 76 98 77 94 79 91 79 100 91 76 64 63 64 61 60 73 79 83 78 62 44 32 28 30 33 36 39 41 37 35 34 34 32 30 27 24
31 61 68 66 66 61 32 28 24 25 28 45 68 100 78 99 98 89 76 78 80 85 78 62 62 65 69 78 85 84 67 51 36 31 31 38 39 40 40 41 40 36 34 34 37 35 28 22 17
20 22 25 31 32 33 31 29 23 26 63 95 100 93 82 98 78 61 79 93 99 82 75 69 79 82 80 77 54 41 37 33 32 33 35 35 34 38 38 33 42 45 44 42 35 26 18 13 12
30 31 29 27 25 23 22 20 17 26 41 70 84 85 98 71 93 96 98 91 79 71 71 75 79 64 49 46 46 40 34 31 33 33 29 26 26 29 38 46 47 47 42 31 23 17 13 10 8
15 15 16 19 22 21 23 37 46 46 42 43 41 41 52 55 96 94 80 62 73 75 63 45 30 29 34 34 28 27 28 27 31 31 26 29 43 44 46 52 49 38 27 26 18 14 10 17 68
21 23 26 28 29 25 21 18 21 21 22 24 31 30 44 82 46 53 59 68 56 53 35 35 41 48 43 35 34 35 37 38 34 31 43 52 52 52 49 46 39 29 16 14 10 19 86 98 56
26 19 17 18 17 17 16 15 14 16 17 19 21 23 28 36 41 41 64 72 51 42 43 46 52 54 48 45 44 45 43 36 33 42 46 42 43 45 46 36 24 16 12 10 68 72 99 95 98
16 17 19 20 19 19 18 18 17 16 16 16 18 19 22 25 28 33 36 42 49 51 54 62 63 54 51 51 53 48 38 38 38 36 37 42 45 46 33 23 14 10 10 16 86 100 97 100 91
18 18 16 15 15 15 15 16 16 17 19 20 20 20 20 22 25 29 37 48 82 72 73 68 59 61 63 59 51 44 38 36 37 45 49 50 48 37 23 16 10 13 17 22 30 90 100 100 78